FW1440 Weather Reports


time (UTC)temp
C
wind
direction
speed
KPH
gust
KPH
rain 1hr
cm
rain 24hr
cm
rain mn
cm
humidity
%
barometer
mb
20260505091402 11 118 3.2 12.9 0.00 0.00 0.00 86 1010.1
20260505090902 11 125 3.2 16.1 0.00 0.00 0.00 85 1010.1
20260505090403 11 139 1.6 16.1 0.00 0.00 0.00 85 1010.1
20260505085902 11 31 1.6 11.3 0.00 0.00 0.00 85 1010.1
20260505085402 11 77 1.6 11.3 0.00 0.00 0.00 84 1010.1
20260505084400 11 56 3.2 12.9 0.00 0.00 0.00 84 1010.0
20260505082900 12 256 3.2 12.9 0.00 0.00 0.00 82 1009.8
20260505082358 12 324 4.8 14.5 0.00 0.00 0.00 82 1009.7
20260505081903 12 245 4.8 14.5 0.00 0.00 0.00 82 1009.7
20260505081358 12 293 4.8 16.1 0.00 0.00 0.00 82 1009.3
20260505080858 12 90 4.8 16.1 0.00 0.00 0.00 82 1009.1
20260505080358 12 117 6.4 19.3 0.00 0.00 0.00 82 1009.1
20260505075858 12 137 9.7 40.2 0.00 0.00 0.00 82 1009.0
20260505074858 11 79 4.8 19.3 0.00 0.00 0.00 85 1009.0
20260505074358 11 293 4.8 19.3 0.00 0.00 0.00 84 1009.0
20260505073853 11 153 4.8 11.3 0.00 0.00 0.00 84 1008.9
20260505072842 11 276 4.8 25.7 0.00 0.00 0.00 84 1008.9
20260505071838 11 122 4.8 17.7 0.00 0.00 0.00 83 1008.9
20260505071338 11 39 4.8 17.7 0.00 0.00 0.00 83 1008.8
20260505070838 12 117 4.8 16.1 0.00 0.00 0.00 82 1008.8
20260505065836 12 310 6.4 16.1 0.00 0.00 0.00 81 1008.6
20260505065337 12 101 4.8 16.1 0.00 0.00 0.00 81 1008.6
20260505064836 12 45 6.4 16.1 0.00 0.00 0.00 80 1008.5
20260505064337 12 103 6.4 17.7 0.00 0.00 0.00 80 1008.5
20260505063837 12 125 4.8 17.7 0.00 0.00 0.00 80 1008.4
20260505063336 12 157 3.2 16.1 0.00 0.00 0.00 79 1008.5
20260505062833 12 107 3.2 16.1 0.00 0.00 0.00 78 1008.4
20260505062331 12 135 1.6 6.4 0.00 0.00 0.00 77 1008.4
20260505061831 12 92 1.6 6.4 0.00 0.00 0.00 76 1008.3
20260505061329 12 93 1.6 6.4 0.00 0.00 0.00 75 1008.3
20260505060826 12 295 1.6 6.4 0.00 0.00 0.00 75 1008.2
20260505055322 13 297 0.0 3.2 0.00 0.00 0.00 73 1008.0
20260505054821 13 295 1.6 4.8 0.00 0.00 0.00 73 1008.0
20260505054320 13 295 1.6 4.8 0.00 0.00 0.00 72 1008.1
20260505053821 13 43 1.6 3.2 0.00 0.00 0.00 72 1008.0
20260505053320 13 43 1.6 4.8 0.00 0.00 0.00 71 1007.9
20260505052320 14 51 1.6 4.8 0.00 0.00 0.00 70 1007.8
20260505051819 14 51 1.6 4.8 0.00 0.00 0.00 70 1007.8
20260505050819 14 122 1.6 8.0 0.00 0.00 0.00 69 1007.7
20260505041322 15 126 6.4 14.5 0.00 0.00 0.00 67 1007.1
20260505040817 15 116 4.8 14.5 0.00 0.00 0.00 67 1007.1
20260505040317 15 116 4.8 12.9 0.00 0.00 0.00 66 1007.0
20260505035818 15 139 4.8 11.3 0.00 0.00 0.00 66 1006.9
20260505035317 16 118 3.2 9.7 0.00 0.00 0.00 66 1006.8
20260505034817 16 119 3.2 9.7 0.00 0.00 0.00 66 1006.9
20260505034316 16 135 3.2 12.9 0.00 0.00 0.00 65 1006.8
20260505033315 16 149 1.6 8.0 0.00 0.00 0.00 65 1006.8
20260505032814 16 154 1.6 4.8 0.00 0.00 0.00 65 1006.7
20260505031814 16 119 3.2 8.0 0.00 0.00 0.00 64 1006.6
20260505031315 17 124 3.2 8.0 0.00 0.00 0.00 64 1006.6
20260505030815 17 118 1.6 8.0 0.00 0.00 0.00 63 1006.5
20260505030315 17 105 0.0 4.8 0.00 0.00 0.00 64 1006.5
20260505025814 17 100 0.0 3.2 0.00 0.00 0.00 64 1006.4
20260505025315 17 124 1.6 3.2 0.00 0.00 0.00 65 1006.4
20260505024310 18 124 1.6 4.8 0.00 0.00 0.00 63 1006.4
20260505023810 18 304 1.6 4.8 0.00 0.00 0.00 63 1006.4
20260505023311 18 304 1.6 4.8 0.00 0.00 0.00 63 1006.4
20260505022811 19 304 1.6 3.2 0.00 0.00 0.00 61 1006.4
20260505022310 19 304 0.0 4.8 0.00 0.00 0.00 60 1006.4
20260505021810 20 304 0.0 4.8 0.00 0.00 0.00 59 1006.5
20260505021311 20 304 1.6 3.2 0.00 0.00 0.00 58 1006.5
20260505020811 20 304 1.6 6.4 0.00 0.00 0.00 57 1006.5
20260505020311 20 304 3.2 6.4 0.00 0.00 0.00 57 1006.5
20260505015810 20 305 1.6 6.4 0.00 0.00 0.00 58 1006.5
20260505015311 20 316 1.6 3.2 0.00 0.00 0.00 58 1006.5
20260505014307 20 304 1.6 4.8 0.00 0.00 0.00 58 1006.6
20260505013806 20 318 1.6 4.8 0.00 0.00 0.00 57 1006.6
20260505013308 21 318 3.2 6.4 0.00 0.00 0.00 54 1006.6
20260505012307 22 137 3.2 11.3 0.00 0.00 0.00 49 1006.6
20260505011306 22 114 3.2 11.3 0.00 0.00 0.00 46 1006.7
20260505010804 22 82 3.2 11.3 0.00 0.00 0.00 44 1006.7
20260505010303 22 109 3.2 9.7 0.00 0.00 0.00 43 1006.7
20260505005802 22 126 4.8 14.5 0.00 0.00 0.00 43 1006.7
20260505005303 22 109 4.8 14.5 0.00 0.00 0.00 41 1006.7
20260505004800 23 91 3.2 12.9 0.00 0.00 0.00 42 1006.8
20260505004301 23 110 3.2 11.3 0.00 0.00 0.00 41 1006.8
20260505003800 22 133 3.2 12.9 0.00 0.00 0.00 41 1006.8
20260505003303 22 111 4.8 12.9 0.00 0.00 0.00 42 1006.8
20260505002800 22 130 4.8 17.7 0.00 0.00 0.00 43 1006.9
20260505002258 22 118 3.2 17.7 0.00 0.00 0.00 42 1006.9
20260505001756 22 110 3.2 17.7 0.00 0.00 0.00 43 1006.9
20260505001255 22 164 3.2 17.7 0.00 0.00 0.00 45 1007.1
20260505000756 22 141 4.8 12.9 0.00 0.00 0.00 46 1007.0
20260505000254 22 141 4.8 16.1 0.00 0.00 0.00 45 1007.0
20260504235754 22 141 6.4 16.1 0.00 0.00 0.00 45 1007.0
20260504235254 22 110 6.4 16.1 0.00 0.00 0.00 46 1007.0
20260504234752 22 126 8.0 17.7 0.00 0.00 0.00 46 1007.1
20260504234252 22 130 9.7 17.7 0.00 0.00 0.00 46 1007.1
20260504233752 21 124 9.7 17.7 0.00 0.00 0.00 46 1007.1
20260504233252 22 116 9.7 19.3 0.00 0.00 0.00 46 1007.1
20260504232251 22 122 8.0 19.3 0.00 0.00 0.00 44 1007.1
20260504231752 22 130 9.7 17.7 0.00 0.00 0.00 48 1007.1
20260504231253 22 139 6.4 17.7 0.00 0.00 0.00 46 1007.2
20260504230251 23 117 6.4 16.1 0.00 0.00 0.00 46 1007.4
20260504225745 23 113 6.4 16.1 0.00 0.00 0.00 48 1007.3
20260504224744 23 137 6.4 14.5 0.00 0.00 0.00 48 1007.4
20260504224244 24 111 4.8 16.1 0.00 0.00 0.00 46 1007.4
20260504223741 24 143 4.8 16.1 0.00 0.00 0.00 49 1007.5
20260504222740 25 143 3.2 11.3 0.00 0.00 0.00 48 1007.4
20260504222241 25 121 3.2 11.3 0.00 0.00 0.00 46 1007.5
20260504221738 25 182 3.2 11.3 0.00 0.00 0.00 47 1007.5
20260504221239 25 176 4.8 11.3 0.00 0.00 0.00 50 1007.4
20260504220738 25 153 4.8 12.9 0.00 0.00 0.00 49 1007.5
20260504220238 25 145 3.2 12.9 0.00 0.00 0.00 51 1007.5
20260504215736 24 167 3.2 6.4 0.00 0.00 0.00 58 1007.6
20260504215236 23 231 3.2 4.8 0.00 0.00 0.00 60 1007.7
20260504214735 22 256 1.6 3.2 0.00 0.00 0.00 62 1007.8
20260504214238 22 233 1.6 4.8 0.00 0.00 0.00 63 1007.8
20260504213736 21 232 3.2 6.4 0.00 0.00 0.00 64 1007.8
20260504213236 21 226 3.2 6.4 0.00 0.00 0.00 65 1007.9
20260504212734 20 230 1.6 4.8 0.00 0.00 0.00 64 1007.9
20260504211233 21 210 3.2 6.4 0.00 0.00 0.00 60 1007.9
20260504210234 21 245 1.6 3.2 0.00 0.00 0.00 65 1008.0
20260504205734 21 245 1.6 4.8 0.00 0.00 0.00 61 1008.0
20260504205232 22 245 1.6 4.8 0.00 0.00 0.00 60 1008.1
20260504204731 22 245 1.6 4.8 0.00 0.00 0.00 61 1008.1
20260504204228 22 214 1.6 4.8 0.00 0.00 0.00 62 1008.1
20260504203728 21 219 1.6 4.8 0.00 0.00 0.00 62 1008.2
20260504203225 21 193 1.6 6.4 0.00 0.00 0.00 65 1008.2
20260504202224 21 227 1.6 6.4 0.00 0.00 0.00 63 1008.2
20260504201222 22 242 3.2 4.8 0.00 0.00 0.00 61 1008.4
20260504200719 22 249 3.2 6.4 0.00 0.00 0.00 60 1008.3
20260504194717 22 237 3.2 6.4 0.00 0.00 0.00 63 1008.4
20260504194217 22 229 3.2 4.8 0.00 0.00 0.00 63 1008.3
20260504193717 21 224 3.2 6.4 0.00 0.00 0.00 61 1008.3
20260504193216 21 246 3.2 6.4 0.00 0.00 0.00 61 1008.3
20260504192709 21 218 3.2 6.4 0.00 0.00 0.00 63 1008.3
20260504192204 21 199 3.2 6.4 0.00 0.00 0.00 64 1008.4
20260504191702 20 226 3.2 4.8 0.00 0.00 0.00 66 1008.4
20260504190702 20 234 3.2 6.4 0.00 0.00 0.00 65 1008.4
20260504190159 20 217 3.2 6.4 0.00 0.00 0.00 66 1008.4
20260504185700 20 216 3.2 6.4 0.00 0.00 0.00 64 1008.4
20260504185200 20 256 1.6 6.4 0.00 0.00 0.00 64 1008.4
20260504184159 20 187 1.6 4.8 0.00 0.00 0.00 63 1008.4
20260504183659 20 185 3.2 4.8 0.00 0.00 0.00 65 1008.4
20260504183159 20 241 3.2 4.8 0.00 0.00 0.00 63 1008.4
20260504182200 20 245 1.6 4.8 0.00 0.00 0.00 65 1008.4
20260504180655 20 245 1.6 6.4 0.00 0.00 0.00 67 1008.4
20260504180156 20 206 1.6 4.8 0.00 0.00 0.00 65 1008.4
20260504175656 20 223 1.6 4.8 0.00 0.00 0.00 66 1008.5
20260504175155 20 237 1.6 4.8 0.00 0.00 0.00 66 1008.5
20260504174655 20 236 1.6 4.8 0.00 0.00 0.00 65 1008.5
20260504173155 20 205 1.6 6.4 0.00 0.00 0.00 65 1008.5
20260504172653 20 223 1.6 4.8 0.00 0.00 0.00 63 1008.5
20260504172150 20 225 1.6 4.8 0.00 0.00 0.00 64 1008.5
20260504171650 20 220 1.6 4.8 0.00 0.00 0.00 64 1008.5
20260504171147 20 211 1.6 4.8 0.00 0.00 0.00 66 1008.4
20260504170645 19 183 1.6 4.8 0.00 0.00 0.00 68 1008.4
20260504170145 18 170 1.6 4.8 0.00 0.00 0.00 67 1008.4
20260504160137 18 9 1.6 4.8 0.00 0.00 0.00 66 1008.3
20260504151127 16 300 1.6 4.8 0.00 0.00 0.00 76 1008.3
20260504150628 15 316 1.6 4.8 0.00 0.00 0.00 80 1008.2
20260504141051 11 124 0.0 3.2 0.00 0.00 0.00 88 1008.0
20260504140552 10 220 0.0 0.0 0.00 0.00 0.00 88 1007.9
20260504130540 9 220 0.0 1.6 0.00 0.00 0.00 88 1007.2
20260504110459 10 220 0.0 0.0 0.00 0.00 0.00 85 1007.2
20260504100447 10 220 0.0 0.0 0.00 0.00 0.00 82 1007.1